CZ-2C R/B

基本信息
目录编号:
59229
目录名称:
CZ-2C R/B
国际标识:
2024-048B
轨道中心:
EARTH
物体状态:
已陨落(2024-03-30)
发射日期:
2024-03-13 UTC
国别:
中国 (CN)
轨道信息
数据来源: 国际轨道数据
星历时间: 2024-03-30T12:28:16+0800
半长轴: 6580.978km
偏心率: 0.0135954
轨道倾角: 28.484°
近地点辐角: 300.896°
升交点赤经: 253.537°
平近点角: 175.309°
近地点: 113.371km
远地点: 292.315km
周期: 88.551分钟
每日圈数: 16.261745
详细信息
发射场:
XSC
轨道高度:
LEO
数据来源:
AOE Integration Group
参考系:
TEME
时间系统:
UTC
历元类型:
SGP4
2D轨道图
3D轨道图
轨道高度分析图
轨道倾角分析图
轨道综合分析图
查看轨道综合分析图